,,,PA_Meas_PMT16A,,PR_Meas_QMR101_102,,RH_Meas_QMH101,,SR_Meas_QMS101,,TA_Meas_QMH101,,GenWind,,GenWind,
date,time,status,PA,status,PR,status,RH,status,SR,status,TA,status,DirAvg,status,SpdAvg,
2014-03-21, 00:00:04,VALID,1009.47,VALID,0,INVALID,110.543,VALID,0,VALID,23.9863,VALID,43,VALID,0,
2014-03-21, 00:01:04,VALID,1009.46,VALID,0,INVALID,110.505,VALID,0,VALID,23.9863,VALID,43,VALID,0,
2014-03-21, 00:02:04,VALID,1009.47,VALID,0,INVALID,110.505,VALID,0,VALID,23.9668,VALID,43,VALID,0,
2014-03-21, 00:03:04,VALID,1009.48,VALID,0,INVALID,110.497,VALID,0,VALID,23.9863,VALID,43,VALID,0,
2014-03-21, 00:04:04,VALID,1009.47,VALID,0,INVALID,110.551,VALID,0,VALID,23.9686,VALID,43,VALID,0,
2014-03-21, 00:05:04,VALID,1009.44,VALID,0,INVALID,110.528,VALID,0,VALID,23.9668,VALID,43,VALID,0,
2014-03-21, 00:06:04,VALID,1009.47,VALID,0,INVALID,110.573,VALID,0,VALID,23.9473,VALID,43,VALID,0,
2014-03-21, 00:07:04,VALID,1009.48,VALID,0,INVALID,110.558,VALID,0,VALID,23.9686,VALID,43,VALID,0,
2014-03-21, 00:08:04,VALID,1009.47,VALID,0,INVALID,110.589,VALID,0,VALID,23.9473,VALID,43,VALID,0,
2014-03-21, 00:09:04,VALID,1009.46,VALID,0,INVALID,110.566,VALID,0,VALID,23.9686,VALID,43,VALID,0,
2014-03-21, 00:10:04,VALID,1009.46,VALID,0,INVALID,110.543,VALID,0,VALID,23.9686,VALID,43,VALID,0,
2014-03-21, 00:11:04,VALID,1009.47,VALID,0,INVALID,110.535,VALID,0,VALID,23.9491,VALID,43,VALID,0,
2014-03-21, 00:12:04,VALID,1009.45,VALID,0,INVALID,110.551,VALID,0,VALID,23.9686,VALID,43,VALID,0,
2014-03-21, 00:13:04,VALID,1009.46,VALID,0,INVALID,110.535,VALID,0,VALID,23.9491,VALID,43,VALID,0,
2014-03-21, 00:14:04,VALID,1009.44,VALID,0,INVALID,110.543,VALID,0,VALID,23.9491,VALID,43,VALID,0,
2014-03-21, 00:15:04,VALID,1009.4,VALID,0,INVALID,110.573,VALID,0,VALID,23.9491,VALID,43,VALID,0,
2014-03-21, 00:16:04,VALID,1009.39,VALID,0,INVALID,110.573,VALID,0,VALID,23.9278,VALID,43,VALID,0,
2014-03-21, 00:17:04,VALID,1009.36,VALID,0,INVALID,110.551,VALID,0,VALID,23.9491,VALID,43,VALID,0,
2014-03-21, 00:18:04,VALID,1009.33,VALID,0,INVALID,110.566,VALID,0,VALID,23.9491,VALID,43,VALID,0,
2014-03-21, 00:19:04,VALID,1009.33,VALID,0,INVALID,110.512,VALID,0,VALID,23.9491,VALID,43,VALID,0,
2014-03-21, 00:20:04,VALID,1009.32,VALID,0,INVALID,110.551,VALID,0,VALID,23.9473,VALID,43,VALID,0,
2014-03-21, 00:21:04,VALID,1009.33,VALID,0,INVALID,110.581,VALID,0,VALID,23.926,VALID,43,VALID,0,
2014-03-21, 00:22:04,VALID,1009.32,VALID,0,INVALID,110.512,VALID,0,VALID,23.9473,VALID,43,VALID,0,
2014-03-21, 00:23:04,VALID,1009.34,VALID,0,INVALID,110.573,VALID,0,VALID,23.9686,VALID,43,VALID,0,
2014-03-21, 00:24:04,VALID,1009.34,VALID,0,INVALID,110.573,VALID,0,VALID,23.9473,VALID,43,VALID,0,
2014-03-21, 00:25:04,VALID,1009.35,VALID,0,INVALID,110.52,VALID,0,VALID,23.9473,VALID,43,VALID,0,
2014-03-21, 00:26:04,VALID,1009.34,VALID,0,INVALID,110.589,VALID,0,VALID,23.9473,VALID,43,VALID,0,
2014-03-21, 00:27:04,VALID,1009.35,VALID,0,INVALID,110.505,VALID,0,VALID,23.9473,VALID,43,VALID,0,
2014-03-21, 00:28:04,VALID,1009.36,VALID,0,INVALID,110.558,VALID,0,VALID,23.9473,VALID,43,VALID,0,
2014-03-21, 00:29:04,VALID,1009.36,VALID,0,INVALID,110.558,VALID,0,VALID,23.9473,VALID,43,VALID,0,
2014-03-21, 00:30:04,VALID,1009.36,VALID,0,INVALID,110.551,VALID,0,VALID,23.9491,VALID,43,VALID,0,
2014-03-21, 00:31:04,VALID,1009.34,VALID,0,INVALID,110.528,VALID,0,VALID,23.9473,VALID,43,VALID,0,
2014-03-21, 00:32:04,VALID,1009.33,VALID,0,INVALID,110.566,VALID,0,VALID,23.9278,VALID,43,VALID,0,
2014-03-21, 00:33:04,VALID,1009.3,VALID,0,INVALID,110.543,VALID,0,VALID,23.9278,VALID,43,VALID,0,
2014-03-21, 00:34:04,VALID,1009.27,VALID,0,INVALID,110.551,VALID,0,VALID,23.9278,VALID,43,VALID,0,
2014-03-21, 00:35:04,VALID,1009.24,VALID,0,INVALID,110.596,VALID,0,VALID,23.9297,VALID,43,VALID,0,
2014-03-21, 00:36:04,VALID,1009.22,VALID,0,INVALID,110.566,VALID,0,VALID,23.9084,VALID,43,VALID,0,
2014-03-21, 00:37:04,VALID,1009.2,VALID,0,INVALID,110.551,VALID,0,VALID,23.9297,VALID,43,VALID,0,
2014-03-21, 00:38:04,VALID,1009.19,VALID,0,INVALID,110.551,VALID,0,VALID,23.9297,VALID,43,VALID,0,
2014-03-21, 00:39:04,VALID,1009.15,VALID,0,INVALID,110.512,VALID,0,VALID,23.9473,VALID,43,VALID,0,
2014-03-21, 00:40:04,VALID,1009.08,VALID,0,INVALID,110.558,VALID,0,VALID,23.9473,VALID,43,VALID,0,
2014-03-21, 00:41:04,VALID,1009.09,VALID,0,INVALID,110.528,VALID,0,VALID,23.9473,VALID,43,VALID,0,
2014-03-21, 00:42:04,VALID,1009.04,VALID,0,INVALID,110.543,VALID,0,VALID,23.9473,VALID,43,VALID,0,
2014-03-21, 00:43:04,VALID,1008.98,VALID,0,INVALID,110.528,VALID,0,VALID,23.9473,VALID,43,VALID,0,
2014-03-21, 00:44:04,VALID,1008.93,VALID,0,INVALID,110.543,VALID,0,VALID,23.9473,VALID,43,VALID,0,
2014-03-21, 00:45:04,VALID,1008.92,VALID,0,INVALID,110.573,VALID,0,VALID,23.9278,VALID,43,VALID,0,
2014-03-21, 00:46:04,VALID,1008.9,VALID,0,INVALID,110.558,VALID,0,VALID,23.9297,VALID,43,VALID,0,
2014-03-21, 00:47:04,VALID,1008.91,VALID,0,INVALID,110.566,VALID,0,VALID,23.9084,VALID,43,VALID,0,
2014-03-21, 00:48:04,VALID,1008.9,VALID,0,INVALID,110.612,VALID,0,VALID,23.8889,VALID,43,VALID,0,
2014-03-21, 00:49:04,VALID,1008.91,VALID,0,INVALID,110.558,VALID,0,VALID,23.8694,VALID,43,VALID,0,
2014-03-21, 00:50:04,VALID,1008.9,VALID,0,INVALID,110.535,VALID,0,VALID,23.8499,VALID,43,VALID,0,
2014-03-21, 00:51:04,VALID,1008.89,VALID,0,INVALID,110.573,VALID,0,VALID,23.8694,VALID,43,VALID,0,
2014-03-21, 00:52:04,VALID,1008.89,VALID,0,INVALID,110.566,VALID,0,VALID,23.8694,VALID,43,VALID,0,
2014-03-21, 00:53:04,VALID,1008.87,VALID,0,INVALID,110.558,VALID,0,VALID,23.8907,VALID,43,VALID,0,
2014-03-21, 00:54:04,VALID,1008.88,VALID,0,INVALID,110.573,VALID,0,VALID,23.8889,VALID,43,VALID,0,
2014-03-21, 00:55:04,VALID,1008.83,VALID,0,INVALID,110.566,VALID,0,VALID,23.9102,VALID,43,VALID,0,
2014-03-21, 00:56:04,VALID,1008.83,VALID,0,INVALID,110.551,VALID,0,VALID,23.9102,VALID,43,VALID,0,
2014-03-21, 00:57:04,VALID,1008.77,VALID,0,INVALID,110.566,VALID,0,VALID,23.9102,VALID,43,VALID,0,
2014-03-21, 00:58:04,VALID,1008.74,VALID,0,INVALID,110.551,VALID,0,VALID,23.8889,VALID,43,VALID,0,
2014-03-21, 00:59:04,VALID,1008.72,VALID,0,INVALID,110.581,VALID,0,VALID,23.8694,VALID,43,VALID,0,
2014-03-21, 01:00:04,VALID,1008.72,VALID,0,INVALID,110.528,VALID,0,VALID,23.8694,VALID,43,VALID,0,
2014-03-21, 01:01:04,VALID,1008.72,VALID,0,INVALID,110.558,VALID,0,VALID,23.8694,VALID,43,VALID,0,
2014-03-21, 01:02:04,VALID,1008.69,VALID,0,INVALID,110.551,VALID,0,VALID,23.8694,VALID,43,VALID,0,
2014-03-21, 01:03:04,VALID,1008.69,VALID,0,INVALID,110.566,VALID,0,VALID,23.8907,VALID,43,VALID,0,
2014-03-21, 01:04:04,VALID,1008.71,VALID,0,INVALID,110.551,VALID,0,VALID,23.8694,VALID,43,VALID,0,
2014-03-21, 01:05:04,VALID,1008.68,VALID,0,INVALID,110.512,VALID,0,VALID,23.9102,VALID,43,VALID,0,
2014-03-21, 01:06:04,VALID,1008.68,VALID,0,INVALID,110.566,VALID,0,VALID,23.8889,VALID,43,VALID,0,
2014-03-21, 01:07:04,VALID,1008.68,VALID,0,INVALID,110.573,VALID,0,VALID,23.8694,VALID,43,VALID,0,
2014-03-21, 01:08:04,VALID,1008.67,VALID,0,INVALID,110.558,VALID,0,VALID,23.8907,VALID,43,VALID,0,
2014-03-21, 01:09:04,VALID,1008.65,VALID,0,INVALID,110.573,VALID,0,VALID,23.8712,VALID,43,VALID,0,
2014-03-21, 01:10:04,VALID,1008.63,VALID,0,INVALID,110.573,VALID,0,VALID,23.8304,VALID,43,VALID,0,
2014-03-21, 01:11:04,VALID,1008.64,VALID,0,INVALID,110.581,VALID,0,VALID,23.8499,VALID,43,VALID,0,
2014-03-21, 01:12:04,VALID,1008.64,VALID,0,INVALID,110.558,VALID,0,VALID,23.8304,VALID,43,VALID,0,
2014-03-21, 01:13:04,VALID,1008.65,VALID,0,INVALID,110.566,VALID,0,VALID,23.8517,VALID,43,VALID,0,
2014-03-21, 01:14:04,VALID,1008.63,VALID,0,INVALID,110.573,VALID,0,VALID,23.8304,VALID,43,VALID,0,
2014-03-21, 01:15:04,VALID,1008.63,VALID,0,INVALID,110.573,VALID,0,VALID,23.8499,VALID,43,VALID,0,
2014-03-21, 01:16:04,VALID,1008.66,VALID,0,INVALID,110.551,VALID,0,VALID,23.8304,VALID,43,VALID,0,
2014-03-21, 01:17:04,VALID,1008.62,VALID,0,INVALID,110.535,VALID,0,VALID,23.8499,VALID,43,VALID,0,
2014-03-21, 01:18:04,VALID,1008.6,VALID,0,INVALID,110.535,VALID,0,VALID,23.8694,VALID,43,VALID,0,
2014-03-21, 01:19:04,VALID,1008.59,VALID,0,INVALID,110.551,VALID,0,VALID,23.8499,VALID,43,VALID,0,
2014-03-21, 01:20:04,VALID,1008.61,VALID,0,INVALID,110.551,VALID,0,VALID,23.8499,VALID,43,VALID,0,
2014-03-21, 01:21:04,VALID,1008.61,VALID,0,INVALID,110.558,VALID,0,VALID,23.8304,VALID,43,VALID,0,
2014-03-21, 01:22:04,VALID,1008.61,VALID,0,INVALID,110.543,VALID,0,VALID,23.8304,VALID,43,VALID,0,
2014-03-21, 01:23:04,VALID,1008.62,VALID,0,INVALID,110.612,VALID,0,VALID,23.8109,VALID,43,VALID,0,
2014-03-21, 01:24:04,VALID,1008.59,VALID,0,INVALID,110.551,VALID,0,VALID,23.8109,VALID,43,VALID,0,
2014-03-21, 01:25:04,VALID,1008.61,VALID,0,INVALID,110.543,VALID,0,VALID,23.8109,VALID,43,VALID,0,
2014-03-21, 01:26:04,VALID,1008.58,VALID,0,INVALID,110.535,VALID,0,VALID,23.8109,VALID,43,VALID,0,
2014-03-21, 01:27:04,VALID,1008.55,VALID,0,INVALID,110.558,VALID,0.112112,VALID,23.8109,VALID,43,VALID,0,
2014-03-21, 01:28:04,VALID,1008.59,VALID,0,INVALID,110.535,VALID,0.112112,VALID,23.8109,VALID,43,VALID,0,
2014-03-21, 01:29:04,VALID,1008.59,VALID,0,INVALID,110.543,VALID,0,VALID,23.7914,VALID,43,VALID,0,
2014-03-21, 01:30:04,VALID,1008.6,VALID,0,INVALID,110.581,VALID,0.112112,VALID,23.772,VALID,43,VALID,0,
2014-03-21, 01:31:04,VALID,1008.59,VALID,0,INVALID,110.558,VALID,0,VALID,23.772,VALID,43,VALID,0,
2014-03-21, 01:32:04,VALID,1008.6,VALID,0,INVALID,110.612,VALID,0,VALID,23.7525,VALID,43,VALID,0,
2014-03-21, 01:33:04,VALID,1008.59,VALID,0,INVALID,110.558,VALID,0,VALID,23.7525,VALID,43,VALID,0,
2014-03-21, 01:34:04,VALID,1008.58,VALID,0,INVALID,110.566,VALID,0,VALID,23.7525,VALID,43,VALID,0,
2014-03-21, 01:35:04,VALID,1008.55,VALID,0,INVALID,110.52,VALID,0.112112,VALID,23.733,VALID,43,VALID,0,
2014-03-21, 01:36:04,VALID,1008.57,VALID,0,INVALID,110.566,VALID,0.112112,VALID,23.733,VALID,43,VALID,0,
2014-03-21, 01:37:04,VALID,1008.54,VALID,0,INVALID,110.528,VALID,0,VALID,23.733,VALID,43,VALID,0,
2014-03-21, 01:38:04,VALID,1008.58,VALID,0,INVALID,110.596,VALID,0.112112,VALID,23.7135,VALID,43,VALID,0,
2014-03-21, 01:39:04,VALID,1008.57,VALID,0,INVALID,110.589,VALID,0.112112,VALID,23.7135,VALID,43,VALID,0,
2014-03-21, 01:40:04,VALID,1008.56,VALID,0,INVALID,110.551,VALID,0,VALID,23.694,VALID,43,VALID,0,
2014-03-21, 01:41:04,VALID,1008.6,VALID,0,INVALID,110.543,VALID,0,VALID,23.7135,VALID,43,VALID,0,
2014-03-21, 01:42:04,VALID,1008.58,VALID,0,INVALID,110.528,VALID,0,VALID,23.694,VALID,43,VALID,0,
2014-03-21, 01:43:04,VALID,1008.56,VALID,0,INVALID,110.512,VALID,0,VALID,23.694,VALID,43,VALID,0,
2014-03-21, 01:44:04,VALID,1008.53,VALID,0,INVALID,110.52,VALID,0,VALID,23.694,VALID,43,VALID,0,
2014-03-21, 01:45:04,VALID,1008.55,VALID,0,INVALID,110.558,VALID,0,VALID,23.694,VALID,43,VALID,0,
2014-03-21, 01:46:04,VALID,1008.55,VALID,0,INVALID,110.497,VALID,0,VALID,23.694,VALID,43,VALID,0,
2014-03-21, 01:47:04,VALID,1008.54,VALID,0,INVALID,110.52,VALID,0,VALID,23.694,VALID,43,VALID,0,
2014-03-21, 01:48:04,VALID,1008.52,VALID,0,INVALID,110.543,VALID,0,VALID,23.694,VALID,43,VALID,0,
2014-03-21, 01:49:04,VALID,1008.53,VALID,0,INVALID,110.497,VALID,0,VALID,23.694,VALID,43,VALID,0,
2014-03-21, 01:50:04,VALID,1008.52,VALID,0,INVALID,110.528,VALID,0,VALID,23.7135,VALID,43,VALID,0,
2014-03-21, 01:51:04,VALID,1008.52,VALID,0,INVALID,110.512,VALID,0,VALID,23.694,VALID,43,VALID,0,
2014-03-21, 01:52:04,VALID,1008.51,VALID,0,INVALID,110.505,VALID,0,VALID,23.694,VALID,43,VALID,0,
2014-03-21, 01:53:04,VALID,1008.53,VALID,0,INVALID,110.505,VALID,0,VALID,23.694,VALID,43,VALID,0,
2014-03-21, 01:54:04,VALID,1008.49,VALID,0,INVALID,110.535,VALID,0,VALID,23.6745,VALID,43,VALID,0,
2014-03-21, 01:55:04,VALID,1008.49,VALID,0,INVALID,110.505,VALID,0,VALID,23.6745,VALID,43,VALID,0,
2014-03-21, 01:56:04,VALID,1008.49,VALID,0,INVALID,110.505,VALID,0,VALID,23.6745,VALID,43,VALID,0,
2014-03-21, 01:57:04,VALID,1008.47,VALID,0,INVALID,110.497,VALID,0,VALID,23.694,VALID,43,VALID,0,
2014-03-21, 01:58:04,VALID,1008.47,VALID,0,INVALID,110.497,VALID,0,VALID,23.6745,VALID,43,VALID,0,
2014-03-21, 01:59:04,VALID,1008.47,VALID,0,INVALID,110.467,VALID,0,VALID,23.6745,VALID,43,VALID,0,
2014-03-21, 02:00:04,VALID,1008.46,VALID,0,INVALID,110.444,VALID,0,VALID,23.6958,VALID,43,VALID,0,
2014-03-21, 02:01:04,VALID,1008.45,VALID,0,INVALID,110.482,VALID,0,VALID,23.694,VALID,43,VALID,0,
2014-03-21, 02:02:04,VALID,1008.43,VALID,0,INVALID,110.535,VALID,0,VALID,23.6532,VALID,43,VALID,0,
2014-03-21, 02:03:04,VALID,1008.39,VALID,0,INVALID,110.512,VALID,0,VALID,23.6745,VALID,43,VALID,0,
2014-03-21, 02:04:04,VALID,1008.42,VALID,0,INVALID,110.52,VALID,0.112112,VALID,23.6745,VALID,43,VALID,0,
2014-03-21, 02:05:04,VALID,1008.37,VALID,0,INVALID,110.467,VALID,0,VALID,23.6958,VALID,43,VALID,0,
2014-03-21, 02:06:04,VALID,1008.39,VALID,0,INVALID,110.505,VALID,0.112112,VALID,23.655,VALID,43,VALID,0,
2014-03-21, 02:07:04,VALID,1008.39,VALID,0,INVALID,110.497,VALID,0,VALID,23.655,VALID,43,VALID,0,
2014-03-21, 02:08:04,VALID,1008.4,VALID,0,INVALID,110.551,VALID,0,VALID,23.6356,VALID,43,VALID,0,
2014-03-21, 02:09:04,VALID,1008.39,VALID,0,INVALID,110.482,VALID,0,VALID,23.6356,VALID,43,VALID,0,
2014-03-21, 02:10:04,VALID,1008.38,VALID,0,INVALID,110.505,VALID,0,VALID,23.6161,VALID,43,VALID,0,
2014-03-21, 02:11:04,VALID,1008.38,VALID,0,INVALID,110.505,VALID,0,VALID,23.6356,VALID,43,VALID,0,
2014-03-21, 02:12:04,VALID,1008.4,VALID,0,INVALID,110.474,VALID,0,VALID,23.6356,VALID,43,VALID,0,
2014-03-21, 02:13:04,VALID,1008.38,VALID,0,INVALID,110.512,VALID,0.112112,VALID,23.6161,VALID,43,VALID,0,
2014-03-21, 02:14:04,VALID,1008.38,VALID,0,INVALID,110.467,VALID,0,VALID,23.6356,VALID,43,VALID,0,
2014-03-21, 02:15:04,VALID,1008.39,VALID,0,INVALID,110.535,VALID,0.112112,VALID,23.6356,VALID,43,VALID,0,
2014-03-21, 02:16:04,VALID,1008.35,VALID,0,INVALID,110.482,VALID,0,VALID,23.6356,VALID,43,VALID,0,
2014-03-21, 02:17:04,VALID,1008.35,VALID,0,INVALID,110.482,VALID,0,VALID,23.6161,VALID,43,VALID,0,
2014-03-21, 02:18:04,VALID,1008.34,VALID,0,INVALID,110.512,VALID,0,VALID,23.6161,VALID,43,VALID,0,
2014-03-21, 02:19:04,VALID,1008.34,VALID,0,INVALID,110.52,VALID,0,VALID,23.5966,VALID,43,VALID,0,
2014-03-21, 02:20:04,VALID,1008.34,VALID,0,INVALID,110.505,VALID,0,VALID,23.5984,VALID,43,VALID,0,
2014-03-21, 02:21:04,VALID,1008.31,VALID,0,INVALID,110.52,VALID,0.112112,VALID,23.5771,VALID,43,VALID,0,
2014-03-21, 02:22:04,VALID,1008.29,VALID,0,INVALID,110.512,VALID,0,VALID,23.5576,VALID,43,VALID,0,
2014-03-21, 02:23:04,VALID,1008.25,VALID,0,INVALID,110.512,VALID,0.112112,VALID,23.5381,VALID,43,VALID,0,
2014-03-21, 02:24:04,VALID,1008.25,VALID,0,INVALID,110.558,VALID,0,VALID,23.5381,VALID,42,VALID,0,
2014-03-21, 02:25:04,VALID,1008.26,VALID,0,INVALID,110.497,VALID,0,VALID,23.5381,VALID,43,VALID,0,
2014-03-21, 02:26:04,VALID,1008.24,VALID,0,INVALID,110.528,VALID,0,VALID,23.5381,VALID,43,VALID,0,
2014-03-21, 02:27:04,VALID,1008.25,VALID,0,INVALID,110.497,VALID,0,VALID,23.5399,VALID,43,VALID,0,
2014-03-21, 02:28:04,VALID,1008.23,VALID,0,INVALID,110.558,VALID,0.112112,VALID,23.5186,VALID,43,VALID,0,
2014-03-21, 02:29:04,VALID,1008.26,VALID,0,INVALID,110.482,VALID,0.112112,VALID,23.5186,VALID,43,VALID,0,
2014-03-21, 02:30:04,VALID,1008.22,VALID,0,INVALID,110.528,VALID,0,VALID,23.4992,VALID,43,VALID,0,
2014-03-21, 02:31:04,VALID,1008.21,VALID,0,INVALID,110.49,VALID,0.112112,VALID,23.5186,VALID,43,VALID,0,
2014-03-21, 02:32:04,VALID,1008.21,VALID,0,INVALID,110.49,VALID,0.112112,VALID,23.4992,VALID,43,VALID,0,
2014-03-21, 02:33:04,VALID,1008.23,VALID,0,INVALID,110.528,VALID,0,VALID,23.4992,VALID,43,VALID,0,
2014-03-21, 02:34:04,VALID,1008.2,VALID,0,INVALID,110.49,VALID,0,VALID,23.5186,VALID,43,VALID,0,
2014-03-21, 02:35:04,VALID,1008.21,VALID,0,INVALID,110.52,VALID,0,VALID,23.4992,VALID,43,VALID,0,
2014-03-21, 02:36:04,VALID,1008.23,VALID,0,INVALID,110.467,VALID,0,VALID,23.4992,VALID,43,VALID,0,
2014-03-21, 02:37:04,VALID,1008.22,VALID,0,INVALID,110.459,VALID,0,VALID,23.4992,VALID,43,VALID,0,
2014-03-21, 02:38:04,VALID,1008.24,VALID,0,INVALID,110.482,VALID,0,VALID,23.4992,VALID,43,VALID,0,
2014-03-21, 02:39:04,VALID,1008.22,VALID,0,INVALID,110.482,VALID,0,VALID,23.4992,VALID,43,VALID,0,
2014-03-21, 02:40:04,VALID,1008.23,VALID,0,INVALID,110.49,VALID,0,VALID,23.4797,VALID,43,VALID,0,
2014-03-21, 02:41:04,VALID,1008.23,VALID,0,INVALID,110.505,VALID,0,VALID,23.5009,VALID,43,VALID,0,
2014-03-21, 02:42:04,VALID,1008.21,VALID,0,INVALID,110.505,VALID,0.112112,VALID,23.4815,VALID,43,VALID,0,
2014-03-21, 02:43:04,VALID,1008.23,VALID,0,INVALID,110.512,VALID,0.112112,VALID,23.4602,VALID,43,VALID,0,
2014-03-21, 02:44:04,VALID,1008.22,VALID,0,INVALID,110.467,VALID,0,VALID,23.4407,VALID,43,VALID,0,
2014-03-21, 02:45:04,VALID,1008.24,VALID,0,INVALID,110.459,VALID,0,VALID,23.4407,VALID,43,VALID,0,
2014-03-21, 02:46:04,VALID,1008.24,VALID,0,INVALID,110.505,VALID,0,VALID,23.4407,VALID,43,VALID,0,
2014-03-21, 02:47:04,VALID,1008.29,VALID,0,INVALID,110.49,VALID,0.112112,VALID,23.4212,VALID,43,VALID,0,
2014-03-21, 02:48:04,VALID,1008.28,VALID,0,INVALID,110.49,VALID,0,VALID,23.4212,VALID,43,VALID,0,
2014-03-21, 02:49:04,VALID,1008.29,VALID,0,INVALID,110.497,VALID,0.112112,VALID,23.4212,VALID,43,VALID,0,
2014-03-21, 02:50:04,VALID,1008.29,VALID,0,INVALID,110.474,VALID,0,VALID,23.4212,VALID,43,VALID,0,
2014-03-21, 02:51:04,VALID,1008.28,VALID,0,INVALID,110.482,VALID,0,VALID,23.4407,VALID,43,VALID,0,
2014-03-21, 02:52:04,VALID,1008.24,VALID,0,INVALID,110.436,VALID,0.112112,VALID,23.4602,VALID,43,VALID,0,
2014-03-21, 02:53:04,VALID,1008.23,VALID,0,INVALID,110.451,VALID,0,VALID,23.4407,VALID,43,VALID,0,
2014-03-21, 02:54:04,VALID,1008.23,VALID,0,INVALID,110.459,VALID,0,VALID,23.4407,VALID,43,VALID,0,
2014-03-21, 02:55:04,VALID,1008.21,VALID,0,INVALID,110.467,VALID,0,VALID,23.4602,VALID,43,VALID,0,
2014-03-21, 02:56:04,VALID,1008.19,VALID,0,INVALID,110.444,VALID,0,VALID,23.4194,VALID,43,VALID,0,
2014-03-21, 02:57:04,VALID,1008.17,VALID,0,INVALID,110.451,VALID,0,VALID,23.4407,VALID,43,VALID,0,
2014-03-21, 02:58:04,VALID,1008.18,VALID,0,INVALID,110.459,VALID,0,VALID,23.4407,VALID,43,VALID,0,
2014-03-21, 02:59:04,VALID,1008.18,VALID,0,INVALID,110.436,VALID,0.112112,VALID,23.4407,VALID,43,VALID,0,
2014-03-21, 03:00:04,VALID,1008.18,VALID,0,INVALID,110.398,VALID,0,VALID,23.4407,VALID,43,VALID,0,
2014-03-21, 03:01:04,VALID,1008.17,VALID,0,INVALID,110.436,VALID,0,VALID,23.4212,VALID,43,VALID,0,
2014-03-21, 03:02:04,VALID,1008.16,VALID,0,INVALID,110.459,VALID,0,VALID,23.4212,VALID,43,VALID,0,
2014-03-21, 03:03:04,VALID,1008.12,VALID,0,INVALID,110.444,VALID,0,VALID,23.4017,VALID,43,VALID,0,
2014-03-21, 03:04:04,VALID,1008.14,VALID,0,INVALID,110.451,VALID,0,VALID,23.3823,VALID,43,VALID,0,
2014-03-21, 03:05:04,VALID,1008.12,VALID,0,INVALID,110.459,VALID,0,VALID,23.3628,VALID,43,VALID,0,
2014-03-21, 03:06:04,VALID,1008.12,VALID,0,INVALID,110.474,VALID,0,VALID,23.3628,VALID,43,VALID,0,
2014-03-21, 03:07:04,VALID,1008.1,VALID,0,INVALID,110.421,VALID,0,VALID,23.3433,VALID,43,VALID,0,
2014-03-21, 03:08:04,VALID,1008.12,VALID,0,INVALID,110.451,VALID,0,VALID,23.3433,VALID,43,VALID,0,
2014-03-21, 03:09:04,VALID,1008.14,VALID,0,INVALID,110.451,VALID,0,VALID,23.3451,VALID,43,VALID,0,
2014-03-21, 03:10:04,VALID,1008.09,VALID,0,INVALID,110.467,VALID,0,VALID,23.3238,VALID,43,VALID,0,
2014-03-21, 03:11:04,VALID,1008.12,VALID,0,INVALID,110.413,VALID,0,VALID,23.3043,VALID,43,VALID,0,
2014-03-21, 03:12:04,VALID,1008.12,VALID,0,INVALID,110.429,VALID,0,VALID,23.3433,VALID,43,VALID,0,
2014-03-21, 03:13:04,VALID,1008.15,VALID,0,INVALID,110.406,VALID,0.112112,VALID,23.3433,VALID,43,VALID,0,
2014-03-21, 03:14:04,VALID,1008.15,VALID,0,INVALID,110.429,VALID,0,VALID,23.3433,VALID,43,VALID,0,
2014-03-21, 03:15:04,VALID,1008.17,VALID,0,INVALID,110.429,VALID,0,VALID,23.3433,VALID,43,VALID,0,
2014-03-21, 03:16:04,VALID,1008.18,VALID,0,INVALID,110.429,VALID,0,VALID,23.3433,VALID,43,VALID,0,
2014-03-21, 03:17:04,VALID,1008.19,VALID,0,INVALID,110.444,VALID,0,VALID,23.3238,VALID,43,VALID,0,
2014-03-21, 03:18:04,VALID,1008.22,VALID,0,INVALID,110.459,VALID,0,VALID,23.3043,VALID,43,VALID,0,
2014-03-21, 03:19:04,VALID,1008.22,VALID,0,INVALID,110.413,VALID,0,VALID,23.3238,VALID,43,VALID,0,
2014-03-21, 03:20:04,VALID,1008.26,VALID,0,INVALID,110.398,VALID,0,VALID,23.3238,VALID,43,VALID,0,
2014-03-21, 03:21:04,VALID,1008.3,VALID,0,INVALID,110.39,VALID,0,VALID,23.3026,VALID,43,VALID,0,
2014-03-21, 03:22:04,VALID,1008.28,VALID,0,INVALID,110.421,VALID,0,VALID,23.3238,VALID,43,VALID,0,
2014-03-21, 03:23:04,VALID,1008.27,VALID,0,INVALID,110.383,VALID,0,VALID,23.3238,VALID,43,VALID,0,
2014-03-21, 03:24:04,VALID,1008.3,VALID,0,INVALID,110.398,VALID,0,VALID,23.3043,VALID,43,VALID,0,
2014-03-21, 03:25:04,VALID,1008.31,VALID,0,INVALID,110.398,VALID,0,VALID,23.3043,VALID,43,VALID,0,
2014-03-21, 03:26:04,VALID,1008.3,VALID,0,INVALID,110.413,VALID,0,VALID,23.3043,VALID,43,VALID,0,
2014-03-21, 03:27:04,VALID,1008.33,VALID,0,INVALID,110.375,VALID,0,VALID,23.3238,VALID,43,VALID,0,
2014-03-21, 03:28:04,VALID,1008.34,VALID,0,INVALID,110.398,VALID,0,VALID,23.3433,VALID,43,VALID,0,
2014-03-21, 03:29:04,VALID,1008.37,VALID,0,INVALID,110.368,VALID,0,VALID,23.3433,VALID,43,VALID,0,
2014-03-21, 03:30:04,VALID,1008.39,VALID,0,INVALID,110.322,VALID,0,VALID,23.3433,VALID,43,VALID,0,
2014-03-21, 03:31:04,VALID,1008.41,VALID,0,INVALID,110.36,VALID,0,VALID,23.3433,VALID,43,VALID,0,
2014-03-21, 03:32:04,VALID,1008.39,VALID,0,INVALID,110.352,VALID,0,VALID,23.3238,VALID,43,VALID,0,
2014-03-21, 03:33:04,VALID,1008.39,VALID,0,INVALID,110.375,VALID,0,VALID,23.3238,VALID,43,VALID,0,
2014-03-21, 03:34:04,VALID,1008.41,VALID,0,INVALID,110.368,VALID,0,VALID,23.3043,VALID,43,VALID,0,
2014-03-21, 03:35:04,VALID,1008.4,VALID,0,INVALID,110.406,VALID,0,VALID,23.2848,VALID,43,VALID,0,
2014-03-21, 03:36:04,VALID,1008.42,VALID,0,INVALID,110.375,VALID,0,VALID,23.2848,VALID,42,VALID,0,
2014-03-21, 03:37:04,VALID,1008.41,VALID,0,INVALID,110.398,VALID,0,VALID,23.2848,VALID,43,VALID,0,
2014-03-21, 03:38:04,VALID,1008.42,VALID,0,INVALID,110.398,VALID,0,VALID,23.3043,VALID,44,VALID,0,
2014-03-21, 03:39:04,VALID,1008.44,VALID,0,INVALID,110.352,VALID,0,VALID,23.3043,VALID,43,VALID,0,
2014-03-21, 03:40:04,VALID,1008.46,VALID,0,INVALID,110.337,VALID,0,VALID,23.3238,VALID,43,VALID,0,
2014-03-21, 03:41:04,VALID,1008.47,VALID,0,INVALID,110.337,VALID,0,VALID,23.3238,VALID,44,VALID,0,
2014-03-21, 03:42:05,VALID,1008.51,VALID,0,INVALID,110.352,VALID,0,VALID,23.3238,VALID,43,VALID,0,
2014-03-21, 03:43:05,VALID,1008.54,VALID,0,INVALID,110.352,VALID,0,VALID,23.3043,VALID,43,VALID,0,
2014-03-21, 03:44:05,VALID,1008.55,VALID,0,INVALID,110.329,VALID,0,VALID,23.3043,VALID,42,VALID,0,
2014-03-21, 03:45:05,VALID,1008.59,VALID,0,INVALID,110.352,VALID,0,VALID,23.3043,VALID,43,VALID,0,
2014-03-21, 03:46:05,VALID,1008.62,VALID,0,INVALID,110.322,VALID,0,VALID,23.3043,VALID,43,VALID,0,
2014-03-21, 03:47:05,VALID,1008.6,VALID,0,INVALID,110.299,VALID,0,VALID,23.3043,VALID,44,VALID,0,
2014-03-21, 03:48:05,VALID,1008.61,VALID,0,INVALID,110.291,VALID,0,VALID,23.3238,VALID,43,VALID,0,
2014-03-21, 03:49:05,VALID,1008.63,VALID,0,INVALID,110.36,VALID,0,VALID,23.3238,VALID,43,VALID,0,
2014-03-21, 03:50:05,VALID,1008.63,VALID,0,INVALID,110.261,VALID,0,VALID,23.3433,VALID,43,VALID,0,
2014-03-21, 03:51:05,VALID,1008.66,VALID,0,INVALID,110.238,VALID,0.112112,VALID,23.3433,VALID,44,VALID,0,
2014-03-21, 03:52:05,VALID,1008.64,VALID,0,INVALID,110.246,VALID,0.112112,VALID,23.3628,VALID,43,VALID,0,
2014-03-21, 03:53:05,VALID,1008.64,VALID,0,INVALID,110.268,VALID,0,VALID,23.3628,VALID,43,VALID,0,
2014-03-21, 03:54:05,VALID,1008.67,VALID,0,INVALID,110.238,VALID,0,VALID,23.3628,VALID,43,VALID,0,
2014-03-21, 03:55:05,VALID,1008.68,VALID,0,INVALID,110.268,VALID,0,VALID,23.384,VALID,44,VALID,0,